Retour au catalogue

STARLINK-1664

ActifCommunicationsVLEO
NORAD 46553·PAYLOAD·🇺🇸 United States

Lancé Oct 6, 2020 depuis Cape Canaveral Space Force Station

Loading…

Prochains Passages (prochaines 24 heures)

TLE

FraisSource: CelesTrak SupGP

Époque: Sep 15, 2026, 02:06 UTC

1 46553C 20070X   26258.08798611  .00095000  00000+0  81957-3 0  2589
2 46553  53.0371 300.4806 0007408   9.9943 145.1942 15.68501415    11

Suivez STARLINK-1664 en temps réel avec AllMySat

Download on the App Store